GFSGL_850_rhum_000.txt.gz
RH
57 45 40 67 78 73 92 61 49 43 24 44 44 38 58 33 74 91 84 73 78 79 76 81 87 89 74 62 61 63 64 67 67 62 63 64 75 83 84 89 88 87 81
42 35 44 74 80 88 82 48 23 48 17 16 30 39 60 46 71 92 87 70 75 75 78 84 84 73 79 80 73 76 70 75 76 75 73 74 72 74 82 88 87 78 77
65 71 61 60 75 92 51 23 22 35 15 24 37 35 45 62 73 89 90 84 75 76 79 82 82 79 80 75 76 70 65 67 69 70 77 72 69 69 68 68 78 69 78
59 71 79 81 90 89 52 28 22 32 17 24 33 44 47 58 85 88 86 86 70 75 84 88 87 86 81 81 80 83 83 82 72 75 71 65 65 66 64 67 67 60 59
62 66 78 93 99 80 46 42 43 36 24 24 28 36 49 69 50 73 83 80 71 66 85 87 87 89 76 64 70 69 67 72 71 71 67 62 63 68 72 67 66 67 67
70 75 80 98 98 70 60 56 63 51 41 37 30 33 52 53 46 63 59 79 85 91 90 92 74 64 69 67 67 65 68 68 66 75 76 69 80 94 79 76 78 79 78
81 83 93 94 80 73 72 75 71 71 66 49 36 48 55 54 62 59 48 62 87 90 85 63 66 74 85 83 78 73 69 68 68 72 96 94 91 90 91 96 94 92 83
75 90 97 78 71 71 76 82 84 81 72 58 59 62 74 84 59 76 71 67 72 78 69 67 66 72 79 79 85 77 78 73 94 94 94 92 93 84 74 82 87 93 90
81 84 62 61 71 79 83 80 91 92 94 99 94 95 100 97 74 69 65 80 83 64 60 55 61 58 77 71 72 71 84 87 87 88 80 63 59 56 56 71 91 94 95
32 40 43 59 72 78 81 85 94 100 99 100 96 95 96 86 59 55 59 74 62 58 54 57 63 63 70 73 74 80 92 89 91 79 84 92 84 89 86 92 90 96 95
30 35 46 62 81 85 91 74 99 99 100 98 98 100 95 68 64 66 68 66 62 59 54 71 78 60 76 75 72 71 89 68 57 62 78 67 62 68 68 72 83 81 69
47 46 63 85 88 98 89 96 98 97 98 97 93 99 96 88 74 72 59 68 64 61 71 82 84 71 72 74 73 76 74 64 73 77 72 59 60 64 63 67 70 67 65
42 61 80 89 98 96 91 99 99 100 99 95 95 96 85 89 82 63 65 67 69 68 87 63 68 74 73 76 75 77 72 80 83 76 62 60 65 67 73 63 56 48 57
53 66 71 97 99 99 99 98 96 97 97 93 94 90 84 88 92 56 59 69 64 61 58 63 66 71 75 80 84 81 85 88 79 71 68 68 68 64 58 48 42 47 74
68 82 99 100 99 99 99 98 96 89 85 80 84 85 74 82 78 85 82 82 76 73 71 82 85 81 81 85 88 88 85 77 73 70 69 67 60 52 46 42 42 64 86
98 99 100 98 99 97 96 89 86 80 66 63 63 67 66 63 61 63 65 61 61 63 67 72 69 75 76 74 76 72 69 69 69 70 66 60 54 48 44 44 45 68 90
93 86 87 83 77 79 85 83 82 69 64 67 60 59 58 56 64 65 60 56 55 58 62 66 69 71 71 70 67 63 63 61 67 65 60 55 48 46 45 44 46 61 77
94 79 81 77 76 74 77 81 75 77 75 62 58 62 62 68 64 58 54 55 59 61 68 67 68 68 68 67 68 65 61 60 54 53 51 47 45 45 43 44 47 58 72
74 76 72 70 71 71 77 75 73 73 70 79 68 69 72 64 58 56 57 62 70 66 64 64 65 62 63 69 71 69 66 52 43 51 49 45 44 42 42 42 44 51 72
72 70 68 71 84 84 84 77 76 74 71 81 80 76 65 65 68 72 67 79 73 66 66 65 67 69 72 76 68 59 47 41 48 46 45 46 44 43 41 40 40 42 62
71 71 75 78 74 70 66 63 61 62 66 64 66 74 81 77 72 80 79 82 75 70 74 74 73 74 75 66 56 44 38 42 45 46 45 43 44 42 40 39 36 37 42
74 72 66 58 57 60 72 74 73 69 66 65 68 81 76 76 84 84 83 79 77 79 75 79 70 61 52 47 40 36 39 42 46 46 45 44 41 40 39 37 34 34 37
72 68 71 71 71 74 78 74 74 69 67 75 82 88 85 90 81 86 87 82 79 78 78 73 66 55 49 38 30 36 38 44 47 48 48 47 42 41 41 37 34 34 35
70 69 68 67 71 66 62 65 69 76 76 85 88 88 84 80 84 91 93 84 80 79 80 72 64 55 47 28 30 34 38 39 26 49 35 50 45 46 44 39 35 36 35
66 66 68 68 68 64 63 64 62 63 68 68 63 69 76 86 93 99 94 82 81 80 78 70 64 58 42 23 27 29 21 13 14 15 22 55 50 53 44 37 39 33 37
58 60 59 60 61 61 60 58 58 57 56 56 58 60 62 65 70 82 83 75 75 75 74 71 65 58 48 30 34 21 19 20 22 21 19 49 47 45 43 39 39 33 35

GFSGL_850_rhum_006.txt.gz
RH
87 82 74 69 46 60 70 73 70 69 74 68 66 62 51 55 65 54 53 63 70 69 61 63 66 69 64 62 65 66 60 58 59 64 56 56 58 64 66 69 69 66 66
84 82 69 53 57 50 63 70 70 74 73 70 67 56 55 65 48 43 31 55 69 62 72 70 57 61 60 69 63 56 60 66 72 66 67 66 64 68 69 74 71 70 70
82 76 75 68 61 50 33 54 70 69 63 50 61 55 43 58 41 35 29 30 46 49 60 69 66 74 75 75 84 78 76 74 73 81 76 69 60 60 53 55 60 65 66
77 75 77 75 56 44 36 27 48 60 62 54 53 50 39 34 31 37 43 38 32 36 69 74 74 78 79 73 69 64 64 71 78 76 92 85 74 67 64 68 73 70 72
61 72 76 72 64 64 61 34 51 66 72 68 75 79 65 34 33 53 62 54 50 55 80 73 74 77 82 61 61 69 73 73 65 70 72 69 60 73 72 71 69 64 61
47 61 65 71 76 78 71 71 83 87 95 94 86 80 68 45 28 65 67 80 77 69 62 66 74 81 76 67 65 72 67 61 70 66 66 58 58 82 69 72 82 88 79
41 52 52 61 69 72 73 81 86 90 94 100 90 70 66 65 58 73 80 75 72 72 63 68 73 68 71 70 68 59 60 59 64 68 59 59 71 68 79 79 70 62 59
39 47 51 56 66 69 74 81 85 92 98 100 99 92 80 66 55 54 68 62 65 58 58 65 66 57 62 75 66 60 60 58 65 67 71 69 71 77 80 88 72 57 55
41 52 55 65 79 75 81 85 89 99 100 100 100 95 84 75 68 75 71 67 57 49 55 63 63 58 53 64 67 64 61 61 59 65 74 79 83 90 86 69 63 64 68
47 55 68 73 77 76 78 83 93 99 98 97 99 97 90 85 79 79 90 81 75 73 66 64 67 72 68 66 62 62 66 61 66 79 73 74 83 75 68 69 61 64 72
61 74 79 85 79 73 78 82 93 95 97 100 98 99 94 88 86 93 97 99 92 76 66 72 78 77 76 66 66 67 66 66 68 69 67 64 67 71 72 69 60 77 80
78 89 91 86 84 88 88 96 95 98 97 95 94 90 88 92 92 92 90 77 64 66 70 82 86 82 75 69 73 72 72 68 66 66 69 75 75 71 62 55 56 59 55
83 88 92 83 72 85 86 98 98 98 94 89 86 87 89 88 88 86 83 66 66 71 74 73 74 71 70 75 78 75 63 61 67 69 80 82 72 64 58 58 57 52 47
83 76 74 78 90 90 91 94 96 94 92 82 91 88 92 92 88 82 84 71 67 70 74 72 70 71 72 76 67 66 64 67 71 85 81 73 67 63 57 55 51 45 42
67 78 83 97 93 93 99 100 96 92 91 88 89 81 75 86 75 76 70 56 47 61 62 71 73 74 69 71 68 68 74 71 70 80 73 70 67 58 55 52 46 42 46
90 92 98 97 97 99 99 99 99 91 92 87 85 82 73 71 74 74 63 51 56 65 74 90 86 72 68 64 65 66 68 72 69 65 67 66 56 56 51 46 43 44 44
74 93 92 93 96 98 91 89 92 94 85 80 77 75 67 60 62 61 53 59 65 70 74 71 58 60 63 64 66 64 62 60 59 59 55 53 53 50 46 44 42 42 44
97 96 96 90 94 86 93 85 78 70 77 72 61 56 55 58 58 55 55 63 66 61 50 52 59 61 63 62 63 62 61 61 60 55 51 49 48 45 43 42 41 40 39
88 88 85 81 75 73 72 73 76 65 70 58 61 50 54 57 60 58 64 66 62 62 62 61 61 60 60 60 61 64 67 66 60 47 45 49 46 45 43 41 40 38 36
76 74 70 64 66 69 66 59 56 56 64 65 56 52 50 55 57 62 64 60 55 61 64 61 61 61 64 68 70 72 70 56 43 41 44 44 44 44 43 42 39 37 34
69 68 63 62 62 62 60 57 52 51 54 56 62 57 54 56 56 58 66 70 70 76 69 66 66 69 72 73 71 61 54 43 36 40 42 44 43 44 42 41 40 37 33
57 63 60 62 59 59 56 52 49 48 48 55 64 65 62 66 70 69 70 74 78 73 74 68 70 75 69 64 58 53 49 35 35 39 44 46 46 44 43 44 43 36 34
61 55 59 61 59 56 57 58 55 52 50 57 64 62 68 72 76 72 70 77 74 76 77 75 74 74 67 56 53 44 35 33 37 42 43 50 49 47 47 48 41 36 34
62 61 62 59 56 57 57 57 54 52 53 61 70 77 80 78 72 70 65 65 75 80 79 73 74 72 62 55 50 38 30 32 37 37 29 26 42 52 48 46 39 36 34
66 64 63 61 59 61 52 52 50 50 50 56 60 63 66 76 79 62 60 69 68 73 73 80 72 71 64 64 57 34 25 25 26 25 16 14 22 48 49 45 39 36 33
68 61 66 67 61 61 54 56 48 50 58 56 54 54 62 71 75 75 75 77 74 76 80 66 66 69 65 61 54 44 35 28 18 14 15 17 36 54 51 41 43 38 35

GFSGL_850_rhum_009.txt.gz
RH
59 63 66 56 63 63 55 54 65 75 76 68 65 66 67 65 41 24 30 39 48 56 58 48 53 54 65 70 65 63 66 61 64 61 64 65 61 54 55 53 59 63 69
60 61 61 59 55 66 54 53 55 66 71 73 74 70 65 58 49 26 22 41 36 52 63 64 56 65 57 49 56 62 63 64 69 70 69 64 70 70 70 62 56 62 63
59 61 61 60 53 59 55 53 47 58 66 72 77 75 72 68 54 39 28 41 31 57 61 71 65 46 44 39 67 65 65 70 72 72 61 64 64 66 70 74 68 64 66
56 60 61 58 46 42 40 41 54 56 67 72 71 73 74 70 68 55 37 49 44 56 60 61 65 66 53 61 66 62 65 59 60 62 62 59 66 65 74 72 76 74 72
55 61 57 50 52 44 50 43 42 62 68 76 79 79 79 78 76 67 46 48 40 53 61 68 75 74 66 66 72 66 59 56 62 62 60 68 70 68 64 55 74 72 60
50 54 57 58 60 60 56 45 53 60 68 80 88 87 84 84 85 78 64 58 49 47 55 59 75 76 75 68 72 67 65 64 70 65 68 69 66 62 61 71 72 66 72
43 49 52 56 61 64 72 70 71 77 90 91 94 97 89 89 92 93 75 60 52 56 67 71 82 76 69 67 78 66 64 65 67 68 68 68 67 60 73 74 75 78 76
43 43 48 51 54 63 70 75 81 86 90 92 95 99 99 100 100 96 73 58 80 76 73 80 72 70 77 76 67 66 66 65 64 66 66 62 70 68 74 77 81 78 68
45 39 43 43 47 61 72 74 85 92 95 97 95 99 97 100 99 90 73 73 80 79 82 86 75 79 66 62 61 68 72 69 64 65 57 59 70 72 69 81 81 76 69
41 39 39 46 48 64 77 74 85 80 74 73 99 97 99 98 94 85 77 65 64 74 80 79 80 72 65 72 74 75 76 67 72 71 71 79 79 78 72 72 74 80 83
38 46 44 48 58 69 75 74 69 70 70 93 99 96 91 88 84 88 85 82 92 88 82 79 76 65 72 79 80 77 72 73 70 70 65 65 64 67 77 79 73 64 66
49 50 56 59 69 74 69 64 65 72 85 92 88 93 94 93 96 92 88 93 98 100 94 86 82 80 85 78 75 72 76 81 66 59 58 65 76 84 69 61 60 59 57
54 63 76 78 86 91 63 63 82 83 99 93 92 92 92 90 89 92 94 97 98 90 84 73 72 71 75 74 71 74 75 62 62 64 68 83 86 76 71 65 61 56 53
64 81 92 91 88 88 86 74 73 93 96 96 94 88 92 90 82 84 78 83 86 72 66 72 73 77 75 70 63 63 62 60 60 62 68 78 73 71 68 62 56 53 44
78 74 76 86 96 96 83 90 93 95 93 86 80 86 81 78 75 79 74 69 61 60 73 77 71 68 64 64 71 69 63 64 65 70 81 81 71 69 62 54 48 44 44
68 77 85 96 79 80 87 96 98 92 88 89 85 81 74 63 80 77 69 54 46 48 53 57 63 66 62 70 68 65 66 65 69 76 75 65 59 53 51 47 45 43 43
71 74 83 75 82 83 89 88 83 80 84 86 83 78 76 75 73 70 68 56 56 66 75 78 76 58 66 66 65 66 64 61 61 61 60 59 55 50 47 45 43 42 41
70 67 75 86 88 87 85 87 75 72 77 87 80 73 75 61 56 60 62 62 68 73 75 64 52 62 65 63 63 62 62 62 62 62 63 51 42 47 47 45 42 41 39
81 90 89 88 85 92 88 81 71 71 74 73 67 60 55 56 56 56 54 58 65 63 60 62 61 63 62 61 60 59 62 65 66 62 40 46 49 46 44 43 42 41 38
87 94 90 85 81 80 71 72 73 80 67 62 63 56 50 49 47 52 58 62 64 61 67 64 64 61 60 61 63 66 66 68 59 38 41 45 44 44 42 42 43 40 39
74 73 76 80 75 72 72 73 69 64 62 61 58 53 54 46 48 52 55 58 61 61 61 68 68 66 66 66 69 68 63 50 36 36 41 42 44 42 43 44 42 42 39
65 67 73 72 72 70 68 63 55 58 63 64 57 58 58 61 62 63 66 69 67 71 66 65 64 62 66 70 67 65 58 53 42 35 38 41 42 42 46 45 45 42 38
68 65 65 68 66 63 56 52 52 53 55 56 56 63 65 69 75 72 72 69 62 66 70 72 71 66 67 70 64 57 55 36 33 40 41 40 33 41 47 47 45 41 35
57 66 70 63 63 59 56 54 54 56 55 56 57 60 63 66 68 72 73 71 70 65 62 62 64 69 63 64 64 55 54 34 31 33 34 28 12 23 45 48 46 39 35
68 72 83 70 61 60 58 58 57 58 62 62 62 62 65 69 72 63 62 58 54 65 60 61 76 76 73 68 64 63 59 30 27 27 26 20 13 40 52 50 45 38 37
73 73 75 73 71 68 59 54 55 55 54 53 60 62 60 64 66 66 61 54 53 56 61 64 72 76 66 67 65 62 49 40 34 21 12 12 14 48 51 50 41 42 40

GFSGL_850_rhum_015.txt.gz
RH
42 44 49 51 55 62 65 54 52 53 61 64 60 67 71 74 65 69 67 64 35 23 26 28 33 38 39 56 72 71 64 60 62 57 61 63 59 59 66 63 66 66 66
40 42 43 46 51 57 63 55 45 50 54 66 69 70 73 72 64 66 67 70 60 28 24 25 28 40 41 50 59 72 74 68 68 66 62 59 58 60 61 60 61 64 69
40 43 43 45 48 52 59 58 47 49 57 63 70 76 78 76 68 68 69 70 69 54 24 24 23 39 49 51 51 62 69 66 69 71 67 61 62 59 59 62 60 55 61
38 42 43 43 44 49 55 59 51 47 51 60 65 72 76 78 74 72 72 72 74 71 51 28 25 32 41 61 65 60 66 71 67 69 69 66 57 59 66 63 59 57 60
36 41 40 42 42 47 53 57 58 47 47 50 59 67 69 79 80 78 78 75 78 79 77 50 38 28 34 46 62 71 72 67 72 74 73 66 61 66 68 64 62 59 58
42 35 37 40 41 45 50 54 58 58 48 50 52 57 62 66 73 79 79 78 77 84 86 78 50 43 31 45 59 73 74 73 77 73 70 67 70 68 67 64 60 67 70
37 38 45 44 40 43 50 53 54 57 60 48 52 55 55 56 56 67 78 78 62 88 92 91 69 58 37 46 61 73 80 73 68 67 72 73 72 67 69 64 60 72 73
33 39 47 42 37 41 51 53 55 56 54 54 48 51 55 54 57 64 81 50 46 91 97 99 84 67 46 51 69 75 83 78 74 74 71 66 72 76 71 65 61 71 78
36 36 42 41 38 43 45 51 60 63 57 54 57 50 50 51 61 73 90 62 78 97 98 81 80 79 57 70 84 82 72 78 78 67 69 74 78 76 77 74 70 78 76
31 28 30 37 40 43 41 46 58 65 60 61 58 53 57 67 76 89 55 64 97 99 80 72 61 66 77 85 87 85 82 71 66 74 80 78 78 76 70 62 67 74 84
23 24 34 43 42 38 46 54 53 65 74 66 62 63 69 82 86 96 66 92 94 82 72 65 69 74 81 89 90 91 82 70 75 76 75 79 63 55 56 68 78 73 68
27 42 49 47 56 63 60 64 73 82 82 67 76 79 85 84 91 83 100 88 74 77 75 74 74 81 83 81 79 78 74 77 77 75 75 60 58 58 74 81 78 72 69
31 32 38 52 65 67 71 72 89 97 79 90 82 87 77 95 97 97 84 77 80 80 81 82 92 92 88 79 79 72 75 76 74 66 60 61 61 61 64 67 69 67 60
45 34 38 48 55 26 73 80 89 98 77 79 70 65 71 68 93 90 82 84 87 88 91 100 97 89 81 75 73 75 77 68 62 63 62 63 64 66 69 74 67 52 40
52 52 61 68 70 80 98 98 99 93 65 57 61 64 67 71 78 68 73 80 87 97 100 100 86 70 73 76 76 66 62 64 65 63 65 68 72 77 74 65 58 46 43
71 60 64 74 84 91 97 100 100 91 66 76 76 71 57 73 79 74 74 79 89 92 96 89 70 74 81 72 61 63 68 70 68 68 71 70 70 68 61 59 54 45 44
100 89 90 88 96 100 100 100 98 95 71 82 71 54 70 78 78 69 82 86 77 79 71 59 56 61 62 62 58 61 65 65 66 62 62 61 63 64 65 49 45 44 38
76 95 100 100 100 100 100 97 73 64 61 66 83 71 71 76 81 88 81 69 62 53 47 50 52 59 65 53 53 62 65 62 59 60 62 65 67 63 37 43 42 36 42
68 68 91 96 99 88 77 71 77 73 69 90 87 84 89 78 75 76 70 58 52 48 52 54 60 66 58 55 57 64 64 63 63 66 62 51 45 38 40 38 38 41 44
82 95 85 95 76 57 52 55 77 91 91 89 89 84 76 75 80 76 72 67 64 55 55 56 62 59 58 59 61 66 63 64 68 63 53 40 34 41 40 41 40 41 43
79 86 82 100 85 85 79 80 72 64 75 83 81 69 64 62 59 52 58 60 57 54 56 60 61 60 64 65 66 63 63 67 68 66 62 49 36 38 40 41 38 40 43
74 89 85 80 79 77 83 75 79 85 76 71 75 71 61 46 48 52 47 50 55 54 54 57 59 62 62 63 64 63 68 70 69 66 62 46 34 37 40 41 33 38 45
60 61 70 79 78 73 72 72 62 59 60 56 51 54 63 57 53 50 51 53 54 57 59 60 62 64 62 63 66 67 65 65 65 66 64 49 34 40 41 27 20 35 44
68 76 75 70 63 65 67 70 76 78 74 69 68 66 60 54 50 51 54 56 60 64 65 68 67 66 66 66 61 62 62 65 67 64 62 40 33 33 28 22 14 35 45
68 66 61 60 63 76 75 81 82 73 68 65 63 62 61 55 54 57 58 62 69 72 67 71 79 79 72 69 70 66 61 66 61 57 47 35 29 27 25 16 15 41 44
66 66 67 70 72 71 74 70 72 71 71 65 60 57 57 57 59 62 64 67 66 60 60 57 57 61 53 72 77 72 61 53 41 35 35 35 32 20 15 13 31 41 40

GFSGL_850_rhum_021.txt.gz
RH
32 35 38 40 43 47 53 53 53 58 63 67 64 57 59 64 63 67 74 70 59 44 32 24 25 24 26 32 34 47 62 67 70 71 61 61 61 64 65 61 63 65 65
33 34 35 37 39 42 45 47 48 52 59 64 66 62 57 65 61 64 70 72 60 43 38 35 23 24 24 24 28 30 38 57 72 72 75 62 66 64 64 65 68 64 65
40 38 38 37 38 40 40 43 46 49 52 59 64 59 58 60 61 60 64 71 64 53 50 52 48 36 29 29 31 35 36 45 58 68 74 70 59 65 70 69 66 61 62
45 41 40 37 34 35 38 40 44 45 49 54 59 59 53 57 58 56 60 66 66 58 57 60 67 70 44 32 36 40 47 48 56 65 79 80 67 76 72 78 81 74 69
42 40 31 31 35 40 40 36 40 46 45 48 54 60 49 52 51 51 54 60 66 65 63 68 72 75 74 54 46 47 53 60 63 80 86 84 80 82 77 79 72 83 82
38 28 30 38 36 36 44 43 42 44 45 46 50 56 55 43 41 43 52 59 62 66 69 69 72 78 82 84 59 58 59 64 70 86 86 85 84 65 80 73 83 83 77
33 35 42 42 40 40 40 44 39 40 43 44 48 52 56 39 37 37 49 59 65 68 72 74 75 78 83 90 90 68 66 69 75 76 82 79 82 68 68 73 75 72 87
37 39 39 38 37 44 48 42 42 42 40 42 44 48 52 49 34 35 43 53 63 67 70 76 79 80 85 88 93 88 80 70 63 74 78 81 80 74 74 68 71 76 77
29 28 28 30 37 45 51 42 44 48 46 43 44 46 47 45 36 33 42 54 65 66 68 72 73 83 86 76 96 97 81 70 67 79 86 82 76 78 70 76 78 77 85
25 26 42 49 49 46 44 58 57 48 40 44 44 43 44 42 40 37 44 56 62 66 68 72 71 89 70 85 98 100 83 61 69 80 79 75 74 70 75 75 75 79 70
34 36 38 41 44 48 53 51 58 67 69 54 43 41 41 42 45 46 50 60 60 66 71 70 71 92 83 90 94 99 79 62 84 86 83 79 74 76 77 65 52 60 72
39 39 39 42 48 60 57 59 62 68 71 73 70 64 48 43 46 49 53 65 64 64 63 66 79 84 87 90 86 89 75 89 90 88 86 80 79 79 62 50 49 54 59
46 44 46 50 55 61 62 64 77 91 75 91 98 91 82 64 62 57 64 63 70 76 80 82 79 78 95 86 77 80 87 84 85 87 85 78 79 67 53 52 56 60 65
47 48 47 51 57 63 71 77 90 90 97 99 100 87 47 63 43 64 71 90 100 100 100 100 92 92 82 67 76 88 84 79 76 78 78 80 70 56 59 62 65 66 66
30 31 34 46 56 60 60 66 69 72 72 81 96 95 76 47 33 98 100 99 100 100 98 98 86 97 89 78 83 85 83 71 71 78 78 73 59 61 63 65 62 68 62
31 30 30 32 42 63 78 67 74 80 77 74 90 93 89 69 92 99 98 100 99 86 70 74 76 89 88 82 88 88 79 74 75 78 71 60 63 65 81 60 60 59 64
38 38 40 45 79 87 94 92 99 87 100 100 99 100 98 98 99 100 100 78 67 67 72 74 71 84 85 91 90 74 64 72 75 61 61 67 72 80 63 73 66 65 54
38 40 44 54 97 98 99 100 98 95 97 98 100 100 99 100 100 87 78 72 83 80 60 70 71 87 87 92 74 65 78 74 60 63 67 64 58 62 64 67 60 50 51
57 59 78 87 81 77 72 71 90 98 99 100 100 100 100 100 98 82 86 61 62 75 87 98 88 87 92 75 68 77 72 60 61 65 60 61 64 64 64 58 50 41 37
68 73 77 79 77 84 79 78 54 76 89 99 99 83 74 68 61 66 74 74 84 86 99 95 90 86 73 74 73 71 61 60 65 64 62 64 64 59 59 54 49 46 47
68 72 79 79 97 89 74 68 61 67 66 68 93 99 78 61 62 74 94 81 79 70 75 89 84 64 54 53 62 61 56 59 66 64 63 64 65 64 57 52 48 46 44
70 66 77 92 96 85 77 76 71 93 99 100 98 97 94 82 89 92 96 85 74 72 74 62 45 46 49 56 62 57 59 63 65 64 64 67 64 64 57 51 46 44 44
74 82 82 90 100 99 100 100 99 99 99 97 94 99 100 100 94 81 78 70 72 61 52 48 51 55 61 65 64 61 63 69 64 64 67 66 65 64 60 53 47 46 43
74 81 80 85 95 95 97 99 100 100 100 100 100 100 93 75 64 63 63 60 61 62 57 57 61 62 60 60 64 66 68 65 63 64 65 63 64 63 60 54 48 44 38
66 70 73 82 86 88 88 85 84 88 95 96 91 80 75 75 77 70 66 67 72 70 59 53 52 54 57 57 60 61 62 63 60 64 64 64 64 61 56 53 44 37 35
91 86 85 85 85 86 89 91 91 84 89 88 86 82 88 90 79 71 80 80 78 66 54 54 56 54 59 64 64 63 64 67 69 70 64 63 59 55 50 40 41 38 39

GFSGL_850_rhum_024.txt.gz
RH
32 31 36 40 43 44 50 52 53 56 63 59 65 58 65 71 57 61 65 88 48 46 47 44 25 37 61 64 67 62 60 60 56 51 58 63 63 60 71 71 78 81 74
32 30 30 33 36 40 41 44 46 49 52 54 59 62 60 70 62 58 54 84 63 54 50 45 48 46 26 43 69 69 64 66 61 66 59 65 73 80 75 89 82 70 71
70 56 49 37 32 34 37 37 40 43 46 50 55 60 62 59 63 57 54 54 73 55 58 51 66 57 28 53 52 64 70 76 67 64 64 71 68 75 81 77 89 88 82
58 70 70 38 30 29 32 33 36 39 43 47 49 52 59 60 66 58 51 50 62 64 59 60 78 71 54 47 37 34 53 64 74 72 64 60 69 74 79 67 72 79 77
55 62 67 35 37 38 35 34 35 39 39 42 47 50 53 59 74 53 44 48 50 57 60 58 71 75 62 65 65 53 55 52 62 70 64 61 62 66 72 67 64 65 66
53 56 65 70 53 40 47 44 42 41 41 41 44 47 50 56 62 50 36 40 42 48 59 58 67 70 66 73 74 74 62 50 64 63 62 62 70 75 75 74 68 67 65
51 61 59 63 54 53 62 60 45 47 58 46 43 44 48 49 50 41 29 36 34 40 47 64 88 88 65 71 77 84 84 70 54 86 86 77 76 87 89 85 88 81 79
50 48 56 53 58 84 72 56 52 61 58 48 46 43 44 45 46 47 44 37 48 60 64 74 89 94 71 71 76 83 89 90 77 61 86 89 90 95 92 82 86 79 85
40 29 29 44 59 68 58 45 50 63 67 60 58 47 42 42 44 45 48 52 50 70 88 92 92 86 74 74 83 86 95 95 94 68 66 88 89 82 82 90 90 83 76
34 40 39 33 41 37 35 45 57 59 54 84 89 55 41 40 42 41 46 55 58 60 82 74 63 75 70 73 82 91 98 96 97 92 69 74 86 80 76 74 83 80 71
56 62 52 49 38 38 43 47 60 64 84 87 86 84 67 40 43 43 41 46 53 73 68 85 97 70 70 74 83 88 79 94 98 99 87 80 82 79 76 72 74 72 61
64 68 67 53 65 82 68 67 78 89 92 89 91 90 89 68 45 44 47 47 46 64 71 74 84 56 60 73 86 87 89 100 99 95 94 96 96 91 86 83 68 48 66
64 65 72 80 83 77 84 88 97 93 90 94 89 90 85 78 69 54 44 43 52 59 71 86 83 57 66 85 96 96 100 100 96 88 89 91 88 80 78 73 50 42 45
61 68 76 86 92 95 90 92 91 85 94 87 82 84 83 86 86 89 63 87 77 77 98 99 98 85 99 99 98 100 90 94 79 89 89 88 85 84 78 76 71 72 66
81 82 84 80 82 89 92 80 82 81 77 82 84 79 88 86 90 98 78 91 98 92 96 100 100 100 100 100 99 90 82 80 78 90 91 86 84 84 73 72 68 64 64
37 50 57 57 58 68 73 80 82 77 80 85 84 83 80 88 91 82 80 100 100 100 100 100 100 98 100 91 82 71 74 76 96 92 88 85 82 75 70 72 71 65 59
63 52 75 63 68 64 66 67 67 76 96 91 91 96 97 95 99 98 81 100 97 98 100 100 95 92 81 71 71 75 75 94 96 94 84 81 74 71 73 68 69 65 59
65 58 76 85 86 89 76 74 76 74 83 84 88 86 93 99 100 100 98 100 100 100 100 92 74 69 62 69 78 98 97 98 96 86 83 76 71 70 74 67 61 59 56
85 88 86 83 78 76 84 83 80 81 92 83 76 98 97 99 100 100 100 100 100 100 84 73 71 66 73 79 93 93 92 90 86 86 78 70 72 71 67 63 58 55 48
89 72 80 86 88 89 88 84 80 83 99 96 94 80 78 80 97 99 100 99 100 85 84 85 85 84 96 97 92 95 90 83 88 81 72 71 72 67 61 58 53 47 49
88 73 73 85 95 99 96 88 86 86 86 98 91 78 72 71 87 93 92 97 100 99 97 98 100 92 95 87 94 89 88 83 79 73 69 71 69 64 59 53 49 45 38
83 78 79 84 98 99 99 99 99 100 98 94 83 79 76 74 69 71 83 88 97 100 98 97 93 95 96 98 85 80 78 72 74 71 68 65 64 64 59 56 48 43 37
77 88 95 98 99 99 93 88 91 100 99 98 98 98 99 98 100 100 99 97 98 99 98 99 100 99 92 83 76 73 64 66 68 67 64 64 63 62 58 52 47 42 37
86 90 95 99 100 100 100 98 98 99 100 98 99 100 100 100 100 100 100 100 96 99 93 84 86 65 70 75 73 67 62 63 65 66 66 66 63 61 57 53 48 42 38
80 86 96 98 95 94 94 92 91 90 89 93 100 100 100 99 100 100 100 100 98 86 69 58 62 62 52 52 73 70 61 66 68 66 71 65 60 58 57 50 48 43 41
80 83 89 88 82 86 90 88 93 94 94 93 98 99 100 100 99 100 100 100 90 73 61 51 52 71 58 69 70 65 67 66 69 68 68 62 62 63 60 56 48 44 35

GFSGL_850_rhum_030.txt.gz
RH
52 33 36 42 36 36 45 44 58 64 77 59 78 70 66 67 64 77 73 69 64 75 79 74 45 32 32 52 55 55 54 53 48 46 54 54 56 55 57 67 66 66 68
57 56 48 39 33 28 32 36 40 57 56 75 63 81 75 72 58 60 57 64 80 73 66 71 66 44 39 43 55 55 54 54 54 51 51 59 58 59 60 55 55 70 74
82 80 73 56 44 37 29 26 35 41 52 48 64 66 77 74 64 57 50 50 55 81 76 72 72 51 37 34 41 52 56 57 56 56 53 54 57 61 67 67 66 68 56
70 80 82 76 63 61 50 38 32 37 35 42 44 59 65 60 57 58 60 51 43 49 76 90 76 67 49 33 34 30 39 54 52 57 56 52 62 62 65 69 65 67 65
56 67 65 70 74 71 72 65 59 46 36 31 37 42 52 60 52 51 58 59 56 45 45 75 86 73 52 41 38 36 32 50 59 60 62 64 60 59 62 65 68 66 68
49 52 55 60 68 77 81 80 69 54 51 49 41 42 44 44 43 40 43 52 59 58 55 53 77 75 61 55 47 50 42 36 40 46 54 58 61 60 58 59 68 69 73
44 47 51 58 61 66 69 75 79 75 67 59 60 55 42 39 33 34 37 43 54 61 57 56 59 61 68 66 65 58 59 50 54 53 54 56 59 58 60 64 68 67 67
42 43 50 54 58 63 67 70 76 80 76 70 65 61 60 42 38 35 36 43 53 57 63 58 55 58 72 72 67 72 64 65 58 61 63 63 60 61 66 66 69 71 65
32 40 41 48 55 58 64 68 71 80 88 80 68 78 70 54 61 58 62 69 63 59 62 66 66 66 64 82 85 68 60 66 62 60 66 67 72 74 65 72 80 75 62
26 25 35 42 47 55 62 69 71 77 86 93 83 75 80 75 79 82 88 88 78 69 79 75 73 72 71 71 85 87 86 68 64 63 70 76 79 81 83 81 75 81 75
25 32 34 37 45 58 64 78 82 87 92 89 90 91 81 78 83 93 100 99 92 90 88 87 90 87 87 80 77 84 74 81 68 68 63 73 80 83 86 81 78 81 88
30 33 39 43 54 67 74 80 91 89 89 89 93 89 87 90 88 90 94 99 100 100 96 89 88 89 92 92 96 88 86 98 92 83 82 79 86 88 85 81 74 66 78
42 40 44 49 66 69 79 83 90 88 88 88 89 89 94 95 92 95 94 93 92 97 99 99 92 85 84 86 92 96 98 99 99 99 100 91 87 81 81 84 79 76 77
50 56 58 64 75 78 78 85 85 90 89 88 94 93 92 90 84 84 82 83 87 90 92 95 99 98 82 84 84 88 95 98 96 99 97 89 88 92 94 85 79 73 77
68 71 75 79 82 87 86 82 91 86 86 86 85 81 76 78 76 76 77 84 84 82 78 83 92 98 99 89 87 83 84 99 100 100 100 99 99 97 94 88 81 88 86
85 85 82 78 78 80 86 82 80 78 84 79 77 76 77 79 80 76 74 76 77 83 92 95 92 92 88 92 94 87 90 100 100 100 100 100 100 98 92 87 86 94 89
73 72 64 70 57 77 71 77 79 74 75 78 80 80 80 77 73 72 72 73 74 78 84 93 98 100 99 94 90 93 95 96 100 100 100 100 100 100 94 90 92 95 78
67 62 64 62 66 70 74 74 71 73 72 71 74 74 73 68 56 46 45 44 47 54 68 91 100 100 100 100 98 90 98 100 100 100 100 98 88 75 96 98 94 82 72
71 68 67 63 65 64 69 67 67 66 70 71 71 66 48 50 48 44 48 51 53 52 58 94 97 97 98 100 100 100 100 100 100 100 100 98 76 78 90 96 88 77 71
72 77 77 79 78 76 74 70 69 70 70 76 85 77 67 75 71 70 69 71 74 69 78 98 98 98 96 91 86 96 100 100 100 100 99 95 97 90 99 89 76 72 69
89 83 84 87 92 90 91 91 90 88 90 89 96 94 94 87 99 100 93 94 83 77 77 94 89 85 84 75 98 100 99 100 99 98 98 98 99 99 86 80 71 67 64
92 91 93 94 97 98 98 99 99 98 98 97 97 97 93 97 99 98 98 97 96 94 88 81 78 80 83 90 84 77 75 77 75 86 98 100 97 86 76 69 68 66 60
88 95 97 95 96 98 98 100 99 99 99 99 98 98 98 100 99 99 99 97 94 92 89 90 91 91 92 96 97 87 78 86 95 98 100 93 86 75 67 65 63 61 55
88 90 92 89 91 92 94 97 98 92 88 98 100 100 100 100 99 98 98 98 99 99 96 93 92 90 92 94 98 100 100 100 100 99 91 83 74 69 68 64 56 51 48
74 79 80 80 85 91 91 92 90 84 85 83 86 90 98 98 98 98 98 98 98 99 98 100 100 100 100 98 100 96 89 70 81 87 85 76 71 71 67 59 55 53 49
66 64 65 68 75 80 82 73 71 71 73 78 82 88 92 91 92 94 93 97 98 100 100 100 93 89 97 87 92 88 88 79 71 67 72 73 66 66 62 58 56 53 49

GFSGL_850_rhum_033.txt.gz
RH
55 55 49 39 38 53 50 44 57 74 69 66 69 71 64 64 66 68 57 59 62 67 68 59 40 27 50 56 58 53 46 42 44 50 52 56 55 55 56 57 62 66 63
49 53 58 48 38 40 46 35 42 47 66 63 61 65 78 71 67 67 54 48 63 62 63 69 49 46 32 42 46 53 51 46 40 37 47 58 57 56 57 59 61 57 59
52 54 53 58 54 38 35 34 33 36 37 55 76 68 65 76 78 73 69 45 43 46 50 68 66 60 46 39 38 43 54 52 48 46 44 50 58 59 61 63 63 61 64
49 49 49 49 52 47 34 31 33 32 34 38 48 74 72 68 68 74 69 60 47 41 48 49 69 71 50 41 43 39 47 52 52 48 48 51 52 56 61 61 62 65 58
49 49 46 43 43 44 41 31 25 28 35 35 37 43 56 67 68 64 61 60 56 52 48 45 44 43 45 40 41 41 38 45 48 49 50 49 50 54 56 59 62 63 64
47 43 49 50 52 52 43 36 35 29 30 34 34 38 45 50 51 50 53 57 55 54 49 46 49 47 44 42 48 49 47 41 41 43 36 42 43 46 49 54 61 64 70
45 46 47 51 51 54 55 58 47 43 41 36 40 41 42 39 43 52 56 59 55 51 48 45 43 48 50 51 52 64 67 58 56 47 39 34 39 42 51 59 58 60 64
46 47 52 53 52 53 56 58 61 61 55 48 45 49 51 40 43 47 59 71 76 72 64 54 50 46 48 50 51 62 76 74 66 67 62 45 42 46 54 58 60 61 66
44 46 47 47 49 53 57 58 58 64 66 67 66 66 60 58 65 70 76 79 81 82 86 82 75 64 60 63 69 72 70 71 68 76 74 68 55 58 59 64 69 69 74
40 41 42 46 49 50 52 56 59 61 63 65 71 70 68 72 80 88 92 92 87 86 88 86 87 91 92 90 81 80 81 72 70 68 80 81 75 66 70 64 66 71 71
30 32 34 35 40 44 48 55 60 64 67 73 77 82 86 81 89 98 100 99 98 95 93 93 94 96 99 100 100 99 88 82 79 81 78 77 82 74 72 78 76 75 75
29 29 28 28 29 34 42 51 61 70 74 79 85 90 93 89 92 95 99 99 99 96 92 92 94 97 98 97 97 95 99 100 99 95 97 90 84 80 81 74 71 79 85
27 28 36 39 38 43 48 58 70 76 85 88 90 88 87 85 87 88 90 88 86 92 89 88 88 92 89 93 95 91 93 98 99 100 100 100 99 88 80 81 83 84 90
37 35 28 46 52 54 59 72 78 80 84 89 85 86 83 82 84 86 88 94 95 98 96 91 90 89 93 95 97 97 92 96 95 100 98 100 100 100 98 88 87 89 94
62 58 60 56 55 59 71 79 81 80 81 81 82 80 80 86 92 91 92 94 92 88 89 85 88 89 85 82 93 93 89 91 91 97 100 100 100 100 98 98 95 97 97
80 76 76 73 71 78 77 82 87 91 95 92 83 89 92 92 84 88 85 84 83 84 82 81 82 84 89 94 98 99 90 77 77 83 96 100 100 99 100 99 100 99 100
92 87 81 81 80 77 81 84 92 91 92 99 97 91 89 87 84 81 79 78 75 74 72 68 67 88 100 100 100 99 98 97 95 86 86 100 99 100 100 100 100 100 98
74 67 70 70 70 84 85 87 93 92 87 81 85 81 80 78 76 73 65 51 38 38 41 43 45 52 68 90 92 90 89 95 99 100 100 99 99 100 99 100 98 96 90
72 68 67 68 70 77 73 65 69 71 71 72 71 64 57 48 46 46 46 46 48 52 56 61 67 70 73 72 68 71 78 78 85 88 84 96 100 100 99 99 100 98 94
74 72 68 68 76 73 71 72 70 73 74 74 72 68 69 60 62 66 69 70 72 72 74 68 78 81 75 77 74 86 87 76 71 95 100 100 99 99 100 100 100 92 97
82 83 82 81 81 80 80 77 79 78 81 86 88 91 94 89 97 97 98 98 99 100 94 91 92 88 91 91 95 99 94 88 78 76 74 70 55 55 72 87 96 100 100
89 87 87 89 94 93 93 91 89 90 96 100 96 96 98 98 98 97 98 95 97 93 96 97 94 91 91 96 99 99 97 86 85 88 90 91 83 77 95 99 99 98 96
87 96 94 95 96 98 98 98 98 98 98 98 98 98 100 100 98 98 98 99 99 98 99 99 100 88 93 94 96 93 97 99 100 100 100 98 92 98 100 100 94 85 74
91 93 92 92 92 89 90 90 89 90 91 93 96 99 99 99 98 99 99 98 98 98 98 99 100 93 92 99 99 97 92 98 96 97 98 98 98 93 85 84 83 72 68
80 80 83 81 83 80 79 79 79 80 83 85 89 91 91 88 87 91 97 96 89 90 94 96 98 93 93 98 100 100 91 99 100 94 84 85 80 75 74 71 69 71 66
74 79 78 76 73 74 78 85 84 81 83 80 76 80 88 90 95 97 96 94 88 81 76 87 96 93 99 99 93 91 79 89 97 89 85 84 77 71 68 65 60 56 52

GFSGL_850_rhum_036.txt.gz
RH
53 53 57 61 65 65 55 51 54 52 62 69 73 72 70 68 68 71 69 66 57 60 65 56 32 27 37 45 46 48 47 46 45 44 50 54 54 54 55 56 56 58 59
45 50 52 56 62 64 56 46 48 49 59 71 72 72 72 73 70 68 69 69 66 59 52 56 46 42 25 30 40 39 44 50 44 35 36 45 52 54 55 56 56 58 58
48 51 53 56 59 59 49 39 39 46 51 69 78 72 69 70 73 72 68 68 68 49 48 52 40 48 50 36 28 39 40 44 49 49 42 43 45 53 57 57 59 61 60
48 50 52 52 52 49 43 39 35 35 41 47 59 72 67 64 66 67 73 72 69 62 46 43 44 41 39 47 56 44 36 44 52 53 50 50 47 47 55 58 59 59 59
44 44 44 44 44 42 39 37 36 34 30 34 39 52 54 68 69 67 70 68 67 62 58 53 45 40 36 33 40 49 60 58 49 53 58 56 52 50 50 50 57 58 60
41 41 42 41 40 37 35 31 31 30 30 31 33 34 36 40 50 66 70 70 71 68 61 58 58 56 52 49 47 42 40 56 64 59 50 55 52 48 46 50 52 57 62
38 39 41 41 41 36 32 34 31 28 27 28 30 29 31 34 37 39 44 53 61 62 63 62 60 58 57 57 55 56 56 49 56 60 64 56 46 41 39 46 50 52 50
40 38 41 44 45 46 48 51 49 49 46 38 33 32 32 33 38 42 47 54 62 62 63 65 66 62 58 58 61 61 61 58 54 58 64 53 57 55 56 49 41 45 50
40 38 38 40 42 44 47 50 52 55 55 54 53 54 55 56 57 60 65 72 77 78 76 71 65 64 68 78 85 87 80 65 67 67 65 64 66 69 69 73 61 57 57
40 38 41 42 43 44 45 47 48 51 51 53 56 57 58 62 68 77 84 87 86 86 85 84 89 96 100 100 98 97 95 83 96 90 85 81 79 82 87 89 84 64 59
35 36 38 40 42 44 47 49 51 53 56 59 60 62 64 67 72 78 86 98 97 96 93 90 90 92 93 96 100 98 95 96 94 94 97 96 92 91 87 89 89 86 72
42 36 38 40 44 48 50 51 54 57 59 61 67 72 73 79 82 83 90 91 91 90 87 88 88 89 89 89 90 88 89 86 98 100 99 99 100 95 86 91 88 86 86
40 42 43 45 44 43 44 46 54 60 67 72 75 76 80 83 83 86 85 83 88 92 91 91 90 90 93 98 100 97 99 100 100 100 100 98 98 99 98 100 100 99 100
28 28 32 30 34 38 41 42 48 52 62 75 82 82 81 79 80 81 85 90 96 97 96 94 91 92 94 84 86 79 82 86 94 94 99 91 97 100 100 100 100 100 100
62 42 31 28 30 39 53 56 58 58 69 76 81 80 80 83 82 81 92 92 89 87 87 86 85 87 87 84 84 85 76 73 76 79 87 91 99 100 100 98 100 100 100
78 78 72 71 60 66 67 65 73 79 83 85 76 84 89 88 88 88 88 84 88 94 92 86 82 77 74 79 93 98 99 100 99 99 100 97 100 100 100 100 100 100 100
80 79 84 84 80 74 73 73 79 93 86 81 88 82 79 79 99 100 96 89 82 79 72 62 52 46 48 60 78 91 93 79 69 63 60 60 71 100 100 95 100 100 100
83 73 74 84 84 86 89 89 86 91 85 85 89 100 100 97 92 84 72 61 54 47 43 45 48 51 53 59 69 65 62 59 64 67 66 68 89 99 98 87 82 96 100
75 73 70 73 75 76 86 96 98 98 93 85 76 74 66 62 58 57 58 56 50 50 52 52 53 59 65 70 69 66 70 76 80 79 73 72 82 72 66 82 92 98 100
75 68 69 69 78 72 86 100 98 91 88 85 79 75 73 72 73 69 71 69 71 70 67 69 73 77 78 81 80 81 76 79 79 88 86 78 69 71 75 84 86 92 98
82 74 71 72 73 74 75 83 86 87 87 86 84 87 91 86 83 85 88 97 96 92 90 90 96 90 91 92 91 88 88 89 89 90 93 90 81 85 87 82 76 77 79
83 84 84 83 84 84 85 87 88 89 91 94 94 96 99 98 98 98 97 96 94 92 94 99 98 93 90 87 89 88 88 89 100 100 100 98 83 82 88 94 85 77 86
89 90 91 94 95 98 98 98 97 97 98 99 99 100 100 99 98 98 98 97 97 97 98 98 99 99 96 93 100 93 94 97 98 99 96 99 91 76 87 86 79 83 82
88 88 85 87 86 90 99 100 100 100 100 97 90 87 87 89 94 95 97 98 98 97 95 96 97 98 97 96 94 99 100 99 100 96 92 90 95 89 83 76 79 80 74
90 91 86 83 84 83 83 83 82 82 82 82 83 82 85 88 92 96 90 84 80 76 79 93 96 90 90 89 97 100 93 98 99 93 94 91 87 79 76 74 70 67 68
84 76 72 73 73 71 69 71 73 71 70 73 79 83 83 84 84 85 86 86 89 87 84 80 83 96 99 100 100 97 93 98 100 97 97 95 93 84 78 75 75 75 71

GFSGL_850_rhum_042.txt.gz
RH
51 51 52 54 52 53 55 59 62 58 56 50 59 65 69 71 72 75 78 74 66 61 59 62 60 60 52 62 61 58 57 59 58 42 43 39 38 37 39 41 49 52 53
49 50 51 51 51 52 54 56 62 58 54 49 52 57 61 66 70 74 75 75 72 68 62 58 52 58 51 43 43 41 44 46 48 42 34 33 35 40 42 40 37 42 47
50 49 50 50 50 50 53 55 58 62 55 52 54 50 52 57 67 71 71 72 72 72 72 71 66 60 51 51 51 44 33 29 31 34 28 27 27 31 36 38 41 42 39
53 51 51 49 48 50 50 53 56 59 60 54 50 47 44 49 57 61 63 68 71 72 70 69 68 64 55 46 41 41 44 48 53 57 51 46 43 38 40 39 39 40 42
54 54 52 50 50 48 50 51 53 56 57 55 51 44 44 44 43 51 50 53 60 68 69 66 60 55 49 50 52 39 39 39 43 44 45 45 40 41 44 48 57 53 52
52 50 50 50 50 48 49 49 50 51 54 55 53 44 37 36 35 34 41 43 45 50 49 48 50 51 50 50 53 57 64 67 70 70 68 68 64 61 57 55 58 62 63
50 48 49 49 48 46 46 46 46 48 48 50 47 42 35 29 27 29 33 39 42 42 43 43 42 42 46 50 51 56 61 69 78 82 82 78 76 77 76 79 80 78 76
42 43 46 48 47 47 47 46 45 46 45 45 43 38 35 30 28 27 31 36 38 35 35 38 42 40 40 45 49 50 52 61 71 81 89 85 91 96 100 99 99 99 96
37 38 38 40 44 46 47 46 43 44 41 40 41 39 37 35 34 32 37 40 39 36 39 41 44 47 50 54 62 69 70 77 87 83 86 87 89 90 92 98 100 100 98
33 35 40 42 42 41 42 44 46 48 47 50 49 48 48 50 52 56 62 66 67 62 61 63 68 72 78 84 89 93 96 90 88 87 83 79 80 82 85 87 86 90 88
37 40 40 41 41 42 45 47 50 51 52 55 56 56 58 59 60 62 66 73 73 72 76 78 81 86 91 90 88 85 87 89 88 95 93 99 98 88 84 80 80 90 97
41 42 41 42 44 46 47 48 50 54 57 59 59 58 57 57 58 62 67 74 79 86 87 87 89 86 86 87 92 90 94 99 100 99 99 96 96 98 99 100 100 100 99
46 47 47 46 47 47 49 50 53 54 56 55 57 58 59 57 58 64 70 78 85 94 92 91 86 95 98 100 100 100 100 100 99 99 95 96 93 100 100 99 97 96 88
52 52 53 53 54 56 57 57 58 58 59 57 55 58 60 60 63 69 78 83 83 86 79 81 91 95 95 96 100 100 99 94 89 84 84 98 99 97 87 84 74 61 57
50 53 57 61 63 64 63 65 64 64 61 59 60 65 68 67 66 83 85 79 78 83 89 92 96 96 98 97 98 94 84 83 84 91 99 96 85 77 62 56 56 60 64
52 48 44 43 42 45 48 50 52 51 56 70 77 80 78 84 93 89 84 78 92 96 92 96 100 98 92 87 84 81 81 78 74 80 79 68 60 60 58 56 60 65 68
39 46 53 50 46 45 47 55 59 60 72 84 83 88 94 100 97 82 76 85 100 98 100 100 99 93 80 76 67 55 53 56 61 62 63 66 66 64 62 64 69 73 76
47 45 51 65 72 71 73 74 79 84 84 98 100 100 100 100 93 84 77 81 97 98 92 78 72 70 60 57 61 65 68 68 64 67 70 71 70 68 68 73 71 80 86
71 73 70 74 85 92 92 92 90 88 83 75 77 84 83 92 90 97 96 88 76 70 69 64 60 61 63 65 67 70 74 74 76 76 76 78 80 84 80 72 75 79 85
76 78 76 73 83 93 95 97 94 98 87 84 78 79 80 83 78 76 74 74 74 73 71 72 79 83 89 80 82 84 91 92 90 83 77 81 98 99 90 73 80 77 79
80 79 76 76 73 89 100 100 100 99 92 85 85 84 81 82 84 83 81 81 78 78 87 92 100 98 100 99 97 96 94 96 98 94 96 99 99 99 98 89 83 84 82
75 74 77 77 79 80 88 100 100 98 95 91 91 94 99 96 90 93 94 92 95 96 97 98 98 97 100 98 96 98 100 100 100 99 99 97 99 97 100 100 88 88 86
78 76 76 69 79 89 95 100 100 100 97 97 96 99 100 99 98 99 99 98 98 98 99 99 97 97 99 96 94 91 95 97 98 99 98 98 100 100 100 100 96 85 90
88 75 82 74 71 83 94 97 99 100 100 100 100 100 100 100 99 100 100 99 95 88 83 80 79 77 80 83 90 94 94 88 87 90 95 95 99 100 97 99 99 100 99
97 91 87 90 93 99 100 100 100 100 100 100 100 100 100 100 96 89 87 85 81 76 72 67 65 65 64 64 66 73 77 91 98 97 100 100 100 100 100 98 100 100 97
99 91 93 94 99 100 100 100 100 100 100 99 99 94 89 84 77 72 68 65 63 61 59 56 54 51 49 49 49 54 62 69 74 92 100 100 99 99 95 95 96 99 97

GFSGL_850_rhum_045.txt.gz
RH
47 48 50 50 52 54 56 56 56 60 61 54 49 50 62 63 68 72 74 76 77 72 67 60 62 67 66 57 53 59 58 58 60 57 44 33 34 36 38 39 38 36 38
48 48 48 49 49 52 54 55 54 58 62 58 54 48 56 60 64 70 72 73 72 70 63 63 58 55 54 60 58 45 41 43 44 32 29 29 24 25 28 32 36 37 39
48 50 51 49 50 50 51 54 52 55 60 61 54 49 49 53 58 64 68 70 68 66 66 68 66 68 62 56 47 48 46 45 45 43 36 39 32 36 35 34 37 37 36
47 46 50 50 49 48 49 50 50 53 57 61 53 48 46 44 46 50 60 64 63 64 64 67 66 66 61 57 57 52 50 50 49 45 40 52 50 38 36 34 38 39 44
47 46 45 46 48 48 49 48 47 50 54 58 59 52 46 45 39 37 45 51 55 57 59 60 58 56 56 56 61 59 62 64 64 76 84 84 80 81 75 75 80 75 68
45 43 45 46 48 48 48 48 49 49 51 55 58 58 52 40 34 28 30 36 38 40 42 44 47 48 47 49 54 59 68 69 63 68 83 85 80 79 90 89 95 93 88
42 43 44 46 46 46 48 49 49 49 50 52 55 56 55 46 33 28 29 33 33 32 31 29 30 30 30 33 37 41 49 57 66 69 69 70 70 81 87 92 97 98 96
43 42 40 42 44 47 49 48 48 48 48 48 51 51 50 46 38 33 33 36 38 34 31 29 30 28 32 32 33 37 39 39 41 44 49 56 70 84 94 95 97 98 91
42 41 39 40 40 46 48 47 47 49 48 45 45 47 43 39 34 29 34 39 36 32 33 32 32 31 32 34 37 40 41 48 57 62 73 80 87 87 84 93 92 95 96
36 37 39 40 40 41 42 45 44 44 44 45 42 39 38 37 35 33 37 44 43 37 38 38 39 39 41 48 58 67 74 78 84 84 90 87 81 82 86 91 94 98 99
45 42 41 38 36 37 39 42 44 46 46 43 42 40 43 45 47 48 52 57 59 59 64 69 68 66 72 81 86 89 88 86 83 86 85 88 82 81 88 92 97 99 99
43 41 40 40 41 42 44 47 51 51 52 53 52 53 54 54 55 58 60 66 69 76 78 80 78 79 85 90 89 84 83 86 89 96 88 93 99 100 100 99 100 99 96
44 42 43 44 46 48 47 50 54 54 58 56 57 57 57 55 55 58 62 68 74 82 86 88 90 91 90 85 86 95 100 100 99 95 97 100 94 96 100 99 96 79 66
47 45 46 46 48 51 53 56 57 56 59 68 72 74 67 58 58 60 60 67 74 84 93 90 91 83 88 92 96 97 99 98 100 97 90 85 88 97 92 71 59 58 55
58 52 49 49 51 54 62 72 69 65 74 68 78 65 59 62 60 62 65 67 74 82 89 95 93 91 94 99 100 100 100 99 93 84 86 89 87 64 55 56 59 59 85
91 85 74 68 61 66 62 64 63 64 64 72 68 74 76 74 72 74 72 78 83 81 85 90 93 92 95 99 100 99 90 85 82 82 72 62 57 55 57 59 64 80 87
80 77 79 72 85 59 66 66 68 70 73 75 83 87 81 78 83 82 79 79 81 83 92 97 98 100 100 100 96 82 76 70 60 58 58 58 60 64 66 85 97 95 92
63 53 38 70 64 68 58 55 60 66 68 71 90 98 98 92 96 93 86 80 80 80 96 100 100 99 86 76 72 66 61 62 64 64 65 73 75 84 96 99 99 74 68
85 80 92 96 93 85 80 79 78 79 81 89 94 99 100 100 92 86 94 94 89 91 96 90 80 73 71 66 61 60 64 69 74 77 79 83 93 98 99 91 88 74 70
82 88 86 85 87 92 94 94 95 96 99 100 98 94 93 96 92 85 90 89 83 79 78 76 71 66 65 67 73 79 86 95 99 99 96 99 99 98 99 99 99 81 78
82 77 78 80 91 99 99 99 98 98 94 87 88 91 92 94 90 85 80 82 84 84 83 78 81 92 98 99 95 94 92 94 98 98 98 97 98 97 98 98 99 99 87
81 72 70 69 79 97 100 99 99 99 98 95 96 96 99 94 88 87 88 88 89 91 94 98 99 99 98 98 90 85 83 87 91 95 98 99 97 96 97 98 98 99 99
98 87 80 73 67 80 87 99 99 98 97 97 98 99 99 100 97 94 95 96 98 99 98 98 99 94 90 87 80 76 73 79 81 79 80 88 91 93 93 96 97 98 99
100 99 89 82 72 88 97 94 99 99 99 99 99 100 100 100 99 99 100 99 99 99 98 89 81 78 76 73 71 70 65 60 65 83 86 84 92 98 100 99 99 99 97
100 100 97 88 78 77 98 100 100 100 100 100 100 100 99 100 100 100 100 95 88 83 75 68 62 59 55 53 51 52 54 55 57 62 80 90 100 99 98 99 100 100 99
100 100 100 94 90 97 100 100 99 99 99 100 100 100 99 98 99 94 82 72 65 60 57 53 48 43 38 32 28 23 20 22 32 46 60 84 97 99 100 100 100 99 99

GFSGL_850_rhum_048.txt.gz
RH
70 74 68 67 60 50 65 56 57 60 61 59 58 60 85 89 78 64 77 87 95 95 94 92 90 84 81 71 73 72 69 66 60 51 49 51 45 27 26 33 30 32 41
60 54 58 53 52 75 51 55 54 56 57 58 60 53 67 82 90 89 75 85 94 94 93 93 92 86 55 55 77 81 69 67 66 64 63 62 60 63 44 32 36 53 60
71 60 63 68 63 54 48 50 54 53 55 56 62 59 53 70 86 85 74 83 91 92 91 91 91 93 92 76 86 79 75 85 86 84 76 68 64 66 71 76 75 70 59
64 67 65 47 54 50 48 49 50 52 52 54 58 61 54 47 73 85 83 64 83 87 89 91 92 91 90 89 89 94 91 89 78 77 70 61 57 57 65 72 75 72 68
61 64 64 43 44 46 47 48 48 49 50 52 55 58 59 67 67 74 79 80 76 74 86 84 74 74 70 64 84 83 87 87 75 67 62 62 61 61 64 67 73 72 70
62 65 66 44 42 45 47 47 48 47 48 50 52 56 58 70 62 54 54 73 76 75 76 67 55 55 47 50 55 56 62 67 79 83 73 68 72 77 73 73 71 72 76
67 70 67 49 42 42 44 46 47 47 47 48 50 54 55 53 44 38 34 40 66 68 61 66 67 67 64 51 42 33 36 39 46 52 58 62 60 69 77 84 86 87 96
72 64 58 55 47 44 45 46 47 47 48 48 49 50 52 49 42 38 34 36 37 40 54 68 47 34 47 66 80 81 75 66 56 41 36 37 44 74 94 92 91 87 92
73 60 51 47 48 47 48 49 47 48 50 48 48 48 48 44 37 30 37 46 43 33 29 30 32 28 25 26 29 31 36 48 72 73 68 68 87 85 85 91 89 96 86
72 41 44 44 43 45 45 46 45 48 46 52 51 47 42 40 37 31 36 45 58 56 40 30 27 26 25 27 29 34 39 52 89 94 98 98 100 99 82 85 98 100 100
76 80 79 59 42 48 48 42 42 44 56 45 60 52 39 34 34 30 33 40 50 66 67 64 68 62 34 43 56 64 71 90 94 98 99 98 99 92 93 93 94 92 98
77 79 73 50 51 70 52 50 52 48 47 47 45 48 60 38 32 30 30 36 43 52 63 64 76 86 80 70 78 82 86 89 93 88 86 88 88 91 98 99 89 93 96
82 84 81 68 46 72 64 68 81 69 83 80 83 80 75 77 57 39 42 49 56 61 65 89 91 96 96 82 88 90 92 89 91 96 99 99 99 93 88 96 97 96 87
89 92 94 96 90 87 89 92 90 86 87 76 77 75 73 73 77 83 54 56 62 68 68 72 79 82 88 94 90 85 96 100 99 98 98 88 90 90 99 96 81 76 77
92 92 94 92 97 97 91 86 86 80 78 76 72 72 72 72 74 82 85 87 62 63 70 79 90 91 89 90 85 89 97 99 98 99 97 91 99 96 85 77 80 79 76
92 84 81 78 88 88 91 93 88 82 85 80 76 77 75 77 78 87 82 88 77 70 75 88 90 91 91 93 97 99 99 100 98 90 98 94 88 79 78 80 82 84 81
86 81 79 76 89 90 95 98 97 97 98 92 86 85 90 89 86 73 74 76 78 84 90 98 99 100 99 100 100 100 98 93 90 88 90 87 84 83 87 81 82 81 82
88 60 90 88 65 55 53 60 48 52 98 99 93 89 87 89 87 85 86 87 95 100 100 100 98 99 100 100 97 93 97 98 92 76 71 90 87 86 85 87 91 96 96
99 88 81 55 46 43 35 32 28 53 100 99 95 96 99 100 96 93 98 100 100 99 97 98 100 99 98 94 85 78 73 70 67 72 71 92 97 97 99 98 99 98 98
98 84 73 79 56 64 59 45 47 89 97 98 100 100 98 100 100 100 100 98 96 94 94 92 89 85 79 76 73 68 72 80 82 87 94 99 99 99 99 98 98 98 98
100 100 99 87 45 53 90 99 98 100 100 99 100 100 100 99 99 98 97 92 90 87 84 83 82 81 80 80 82 86 95 97 96 96 96 98 97 97 93 93 95 96 95
100 100 97 97 96 93 98 96 98 99 100 100 100 100 100 99 95 93 90 87 84 84 84 84 85 86 90 87 85 84 89 88 84 80 81 78 83 83 90 90 90 92 95
96 100 100 97 90 100 100 100 100 100 100 98 95 94 93 89 86 85 85 85 86 85 86 88 91 94 96 89 83 79 71 65 63 65 70 74 81 97 92 95 97 99 98
91 98 99 99 96 99 100 100 100 99 100 100 100 97 96 95 92 92 90 89 91 92 94 98 95 89 82 77 71 68 54 50 46 45 47 60 92 95 95 98 100 100 100
90 98 93 99 100 99 98 100 98 99 99 98 99 100 100 100 98 97 98 98 99 99 94 81 75 66 58 52 48 45 40 34 30 31 38 91 95 88 94 95 99 98 100
100 96 94 83 89 99 100 100 100 99 100 100 100 100 100 100 100 100 99 99 86 79 72 63 55 49 44 37 29 22 13 8 8 8 16 78 84 86 94 96 93 98 99